| time (UTC) | temp F | wind direction | speed MPH | gust MPH | rain 1hr in | rain 24hr in | rain mn in | humidity % | barometer mb |
| 20260831060105 | 51 | 157 | 3.0 | 4.0 | 0.00 | 0.00 | 0.00 | 82 | 1016.3 |
| 20260831054531 | 51 | 158 | 3.0 | 5.0 | 0.00 | 0.00 | 0.00 | 81 | 1016.4 |
| 20260831053031 | 52 | 158 | 4.0 | 6.0 | 0.00 | 0.00 | 0.00 | 79 | 1016.5 |
| 20260831051646 | 52 | 160 | 3.0 | 4.0 | 0.00 | 0.00 | 0.00 | 79 | 1016.6 |
| 20260831044645 | 53 | 169 | 3.0 | 5.0 | 0.00 | 0.00 | 0.00 | 77 | 1016.7 |
| 20260831043030 | 54 | 168 | 4.0 | 5.0 | 0.00 | 0.00 | 0.00 | 75 | 1016.8 |
| 20260831041556 | 56 | 158 | 3.0 | 4.0 | 0.00 | 0.00 | 0.00 | 72 | 1016.8 |
| 20260831040028 | 57 | 157 | 4.0 | 5.0 | 0.00 | 0.00 | 0.00 | 69 | 1016.8 |
| 20260831034527 | 59 | 156 | 4.0 | 5.0 | 0.00 | 0.00 | 0.00 | 64 | 1016.6 |
| 20260831033031 | 63 | 307 | 1.0 | 5.0 | 0.00 | 0.00 | 0.00 | 55 | 1016.4 |
| 20260831030030 | 65 | 248 | 3.0 | 8.0 | 0.00 | 0.00 | 0.00 | 50 | 1016.4 |
| 20260831024530 | 66 | 256 | 5.0 | 9.0 | 0.00 | 0.00 | 0.00 | 50 | 1016.3 |
| 20260831023030 | 67 | 264 | 4.0 | 7.0 | 0.00 | 0.00 | 0.00 | 47 | 1016.3 |
| 20260831021608 | 69 | 260 | 5.0 | 11.0 | 0.00 | 0.00 | 0.00 | 44 | 1016.3 |
| 20260831020109 | 70 | 259 | 5.0 | 10.0 | 0.00 | 0.00 | 0.00 | 43 | 1016.2 |
| 20260831014530 | 71 | 259 | 5.0 | 10.0 | 0.00 | 0.00 | 0.00 | 42 | 1016.3 |
| 20260831013028 | 72 | 258 | 6.0 | 11.0 | 0.00 | 0.00 | 0.00 | 41 | 1016.3 |
| 20260831011529 | 73 | 263 | 6.0 | 12.0 | 0.00 | 0.00 | 0.00 | 40 | 1016.3 |
| 20260831004530 | 74 | 257 | 6.0 | 13.0 | 0.00 | 0.00 | 0.00 | 38 | 1016.3 |
| 20260831003030 | 75 | 273 | 5.0 | 9.0 | 0.00 | 0.00 | 0.00 | 37 | 1016.3 |
| 20260831000034 | 76 | 110 | 2.0 | 8.0 | 0.00 | 0.00 | 0.00 | 39 | 1016.3 |
| 20260830234528 | 76 | 331 | 3.0 | 9.0 | 0.00 | 0.00 | 0.00 | 37 | 1016.4 |
| 20260830233030 | 75 | 290 | 3.0 | 9.0 | 0.00 | 0.00 | 0.00 | 36 | 1016.4 |
| 20260830231532 | 75 | 281 | 6.0 | 12.0 | 0.00 | 0.00 | 0.00 | 37 | 1016.4 |
| 20260830230107 | 74 | 294 | 5.0 | 12.0 | 0.00 | 0.00 | 0.00 | 38 | 1016.6 |
| 20260830224532 | 74 | 282 | 5.0 | 12.0 | 0.00 | 0.00 | 0.00 | 39 | 1016.7 |
| 20260830223030 | 74 | 279 | 7.0 | 12.0 | 0.00 | 0.00 | 0.00 | 38 | 1017.0 |
| 20260830220032 | 73 | 295 | 5.0 | 9.0 | 0.00 | 0.00 | 0.00 | 40 | 1017.4 |
| 20260830214602 | 73 | 275 | 7.0 | 14.0 | 0.00 | 0.00 | 0.00 | 39 | 1017.6 |
| 20260830213031 | 73 | 282 | 6.0 | 14.0 | 0.00 | 0.00 | 0.00 | 40 | 1017.8 |
| 20260830203030 | 72 | 37 | 5.0 | 11.0 | 0.00 | 0.00 | 0.00 | 47 | 1018.2 |
| 20260830200031 | 71 | 66 | 6.0 | 12.0 | 0.00 | 0.00 | 0.00 | 46 | 1018.5 |
| 20260830194530 | 71 | 46 | 5.0 | 11.0 | 0.00 | 0.00 | 0.00 | 47 | 1018.6 |
| 20260830193103 | 71 | 65 | 5.0 | 9.0 | 0.00 | 0.00 | 0.00 | 46 | 1018.8 |
| 20260830191530 | 71 | 65 | 5.0 | 9.0 | 0.00 | 0.00 | 0.00 | 45 | 1018.9 |
| 20260830190105 | 70 | 66 | 3.0 | 10.0 | 0.00 | 0.00 | 0.00 | 43 | 1019.0 |
| 20260830184529 | 70 | 11 | 3.0 | 8.0 | 0.00 | 0.00 | 0.00 | 43 | 1019.2 |
| 20260830183033 | 69 | 59 | 4.0 | 7.0 | 0.00 | 0.00 | 0.00 | 45 | 1019.3 |
| 20260830180030 | 67 | 75 | 2.0 | 7.0 | 0.00 | 0.00 | 0.00 | 47 | 1019.5 |
| 20260830174529 | 67 | 57 | 2.0 | 5.0 | 0.00 | 0.00 | 0.00 | 47 | 1019.5 |
| 20260830171530 | 64 | 43 | 1.0 | 5.0 | 0.00 | 0.00 | 0.00 | 52 | 1019.6 |
| 20260830164605 | 62 | 119 | 1.0 | 3.0 | 0.00 | 0.00 | 0.00 | 56 | 1020.0 |
| 20260830163031 | 59 | 150 | 0.0 | 2.0 | 0.00 | 0.00 | 0.00 | 63 | 1020.4 |
| 20260830160108 | 58 | 22 | 0.0 | 1.0 | 0.00 | 0.00 | 0.00 | 70 | 1020.6 |
| 20260830154607 | 55 | 310 | 0.0 | 2.0 | 0.00 | 0.00 | 0.00 | 75 | 1020.7 |
| 20260830151533 | 50 | 202 | 0.0 | 1.0 | 0.00 | 0.00 | 0.00 | 87 | 1020.8 |
| 20260830150030 | 46 | 202 | 0.0 | 1.0 | 0.00 | 0.00 | 0.00 | 89 | 1020.7 |
| 20260830144529 | 43 | 190 | 0.0 | 4.0 | 0.00 | 0.00 | 0.00 | 91 | 1020.7 |
| 20260830143030 | 40 | 164 | 1.0 | 6.0 | 0.00 | 0.00 | 0.00 | 92 | 1020.5 |
| 20260830141604 | 40 | 228 | 0.0 | 3.0 | 0.00 | 0.00 | 0.00 | 91 | 1020.2 |
| 20260830134530 | 40 | 252 | 0.0 | 3.0 | 0.00 | 0.00 | 0.00 | 91 | 1020.0 |
| 20260830131530 | 41 | 269 | 0.0 | 3.0 | 0.00 | 0.00 | 0.00 | 90 | 1019.8 |
| 20260830124526 | 42 | 219 | 1.0 | 4.0 | 0.00 | 0.00 | 0.00 | 89 | 1019.7 |
| 20260830123032 | 42 | 124 | 1.0 | 4.0 | 0.00 | 0.00 | 0.00 | 88 | 1019.8 |
| 20260830121531 | 43 | 308 | 1.0 | 7.0 | 0.00 | 0.00 | 0.00 | 89 | 1019.9 |
| 20260830120030 | 42 | 197 | 3.0 | 7.0 | 0.00 | 0.00 | 0.00 | 88 | 1019.9 |
| 20260830114606 | 43 | 101 | 0.0 | 3.0 | 0.00 | 0.00 | 0.00 | 87 | 1019.9 |
| 20260830113031 | 43 | 172 | 2.0 | 7.0 | 0.00 | 0.00 | 0.00 | 88 | 1019.9 |
| 20260830111530 | 43 | 164 | 5.0 | 7.0 | 0.00 | 0.00 | 0.00 | 89 | 1019.9 |
| 20260830104530 | 43 | 178 | 3.0 | 6.0 | 0.00 | 0.00 | 0.00 | 89 | 1019.9 |
| 20260830103031 | 43 | 162 | 3.0 | 6.0 | 0.00 | 0.00 | 0.00 | 89 | 1019.8 |
| 20260830101531 | 44 | 138 | 3.0 | 6.0 | 0.00 | 0.00 | 0.00 | 89 | 1019.8 |
| 20260830100030 | 44 | 154 | 3.0 | 6.0 | 0.00 | 0.00 | 0.00 | 87 | 1019.8 |
| 20260830094533 | 45 | 273 | 0.0 | 6.0 | 0.00 | 0.00 | 0.00 | 88 | 1019.8 |
| 20260830093030 | 44 | 157 | 4.0 | 7.0 | 0.00 | 0.00 | 0.00 | 89 | 1019.8 |
| 20260830091531 | 43 | 161 | 2.0 | 7.0 | 0.00 | 0.00 | 0.00 | 89 | 1019.8 |
| 20260830084533 | 43 | 337 | 0.0 | 0.0 | 0.00 | 0.00 | 0.00 | 87 | 1019.9 |
| 20260830081531 | 45 | 164 | 3.0 | 5.0 | 0.00 | 0.00 | 0.00 | 87 | 1019.9 |
| 20260830080031 | 45 | 171 | 5.0 | 6.0 | 0.00 | 0.00 | 0.00 | 87 | 1020.0 |
| 20260830074530 | 45 | 166 | 3.0 | 7.0 | 0.00 | 0.00 | 0.00 | 86 | 1020.0 |
| 20260830073031 | 46 | 154 | 2.0 | 5.0 | 0.00 | 0.00 | 0.00 | 85 | 1020.0 |
| 20260830071528 | 47 | 193 | 2.0 | 5.0 | 0.00 | 0.00 | 0.00 | 85 | 1020.0 |
| 20260830070029 | 47 | 141 | 3.0 | 6.0 | 0.00 | 0.00 | 0.00 | 86 | 1020.0 |
| 20260830064534 | 47 | 269 | 1.0 | 4.0 | 0.00 | 0.00 | 0.00 | 84 | 1019.9 |
| 20260830063032 | 48 | 327 | 1.0 | 3.0 | 0.00 | 0.00 | 0.00 | 84 | 1019.9 |